Regional Weather Roundup
Issued by NWS Sioux Falls, SD

Home | Current Version | Previous Version | Graphics & Text | Print | Product List | Glossary On
Versions: 1 2 3 4 5 6 7 8 9 10 11 12 13 14 15 16 17 18 19 20 21 22 23 24 25 26 27 28 29 30 31 32 33 34 35 36 37 38 39 40 41 42 43 44 45 46 47 48 49 50
000
ASUS43 KFSD 262110
RWRFSD

WEATHER ROUNDUP FOR SE SOUTH DAKOTA/SW MINNESOTA/NW IOWA
NATIONAL WEATHER SERVICE SIOUX FALLS SD
300 PM CST THU FEB 26 2015

NOTE: "FAIR" INDICATES FEW OR NO CLOUDS BELOW 12,000 FEET WITH NO
SIGNIFICANT WEATHER AND OR OBSTRUCTIONS TO VISIBILITY.


SDZ038>040-050-052>070-262200-
SOUTHEAST SOUTH DAKOTA

CITY           SKY/WX    TMP DP  RH WIND       PRES   REMARKS
CHAMBERLAIN    PTSUNNY   11  -5  47 NW14      30.51S WCI  -5
HURON          PTSUNNY    4  -5  66 NW13      30.55F WCI -13
MADISON        FAIR       1  -4  78 NW20      30.46S WCI -20
MITCHELL       MOSUNNY    8  -4  58 N15G23    30.55S WCI  -9
SIOUX FALLS    PTSUNNY    5  -5  63 NW16      30.48F WCI -14
WINNER         MOCLDY    12  -3  51 N13G21    30.48F WCI  -3
YANKTON        PTSUNNY   10  -2  56 N21       30.53S WCI  -9
$$

MNZ071-072-080-081-089-090-097-098-262200-
SOUTHWEST MINNESOTA

CITY           SKY/WX    TMP DP  RH WIND       PRES   REMARKS
FAIRMONT       CLOUDY     5  -6  61 NW16G23   30.43S WCI -14
JACKSON        PTSUNNY    5  -6  61 NW17G23   30.44S HAZE    WCI -14
LUVERNE        MOSUNNY    7  -4  61 NW15      30.48S WCI -11
MARSHALL       PTSUNNY    1  -8  66 N18       30.50S WCI -19
MONTEVIDEO     PTSUNNY    5  -6  61 N20       30.52S HAZE    WCI -15
PIPESTONE      SUNNY      3  -6  66 N13       30.43S WCI -14
REDWOOD FALLS  PTSUNNY    4  -7  60 NW14G22   30.49S WCI -14
TRACY          CLOUDY     4  -3  71 NW15      30.47F HAZE    WCI -14
WINDOM         MOSUNNY    1  -6  71 NW15      30.44F WCI -18
WORTHINGTON    CLOUDY    27  -9  20 NW18      30.45S WCI  13
$$

IAZ001>003-012>014-020>022-031-032-NEZ013-014-SDZ071-262200-
NORTHWEST IOWA

CITY           SKY/WX    TMP DP  RH WIND       PRES   REMARKS
CHEROKEE       MOSUNNY    6  -4  63 NW14      30.48S WCI -12
DENISON        PTSUNNY    5  -4  66 N16       30.47S WCI -14
ESTHERVILLE    LGT SNOW   2  -4  76 N17       30.45S WCI -18
LE MARS        PTSUNNY    7  -2  66 N16       30.51S WCI -11
ORANGE CITY    MOSUNNY    7  -4  61 N13       30.47S WCI  -9
SHELDON        PTSUNNY    5  -4  66 NW15      30.46S WCI -13
SIOUX CITY     CLOUDY    11   1  64 NW15      30.51F WCI  -5
SPENCER        PTSUNNY    6  -4  63 NW17      30.46S WCI -13
STORM LAKE     MOSUNNY    3  -4  72 NW14      30.45S WCI -15
$$

ABBREVIATIONS USED IN REMARKS
   TC - TEMPERATURE IN CELSIUS
  WCI - WIND CHILL INDEX
   HX - HEAT INDEX
  VSB - VISIBILITY




USA.gov is the U.S. government's official web portal to all federal, state and local government web resources and services.